User: anonymous   Login
Location: Camp Creek
(33.9000°N, 111.8167°W)
Time: 08:35:25
(UTC-07:00)
Language:

DELTA 2 R/B (1) - Orbit

View from above orbital plane
View from above orbital plane
View from above satellite
View from above satellite

Ground track
Ground track

The orbit data is extracted from the following two-line orbital elements,

1 27665U 03005C   16269.41262164  .00000040  00000-0  49444-4 0  9997
2 27665  39.5772  18.4211 0009684 342.4146  47.6309 14.28419740713065
Epoch (UTC): 25 September 2016 09:54:10
Eccentricity: 0.0009684
inclination: 39.5772°
perigee height: 790 km
apogee height: 804 km
right ascension of ascending node: 18.4211°
argument of perigee: 342.4146°
revolutions per day: 14.28419740
mean anomaly at epoch: 47.6309°
orbit number at epoch: 71306

The dashed part of the orbit path shows where the satellite is in the earth's shadow,  

DLR